�������ċp�F�����K�X���j�^�v���󋵏��
Date,Time,�ċp�F�����K�X���j�^(cps),����,����(m/s)
2022/02/17,00:00,1.5,�k,3.8
2022/02/17,00:10,1.5,�k,4.5
2022/02/17,00:20,1.6,�k,4.8
2022/02/17,00:30,1.6,�k,4.4
2022/02/17,00:40,1.6,�k�k��,4.1
2022/02/17,00:50,1.6,�k�k��,4.3
2022/02/17,01:00,1.6,�k�k��,5.0
2022/02/17,01:10,1.6,�k�k��,4.5
2022/02/17,01:20,1.6,�k�k��,4.5
2022/02/17,01:30,1.5,�k�k��,4.2
2022/02/17,01:40,1.6,�k��,2.9
2022/02/17,01:50,1.5,���k��,3.0
2022/02/17,02:00,1.6,���k��,4.4
2022/02/17,02:10,1.6,���k��,4.6
2022/02/17,02:20,1.6,��,4.0
2022/02/17,02:30,1.5,���k��,4.3
2022/02/17,02:40,1.5,���k��,3.5
2022/02/17,02:50,1.6,���k��,4.2
2022/02/17,03:00,1.5,���k��,3.4
2022/02/17,03:10,1.6,�k��,3.2
2022/02/17,03:20,1.5,�k��,3.5
2022/02/17,03:30,1.5,�k��,4.6
2022/02/17,03:40,1.6,�k��,4.9
2022/02/17,03:50,1.6,�k��,5.6
2022/02/17,04:00,1.5,�k��,5.3
2022/02/17,04:10,1.6,�k��,4.2
2022/02/17,04:20,1.5,�k��,4.9
2022/02/17,04:30,1.5,�k��,6.0
2022/02/17,04:40,1.5,�k��,6.9
2022/02/17,04:50,1.6,�k��,5.5
2022/02/17,05:00,1.5,�k��,4.5
2022/02/17,05:10,1.6,�k��,5.1
2022/02/17,05:20,1.6,�k�k��,6.3
2022/02/17,05:30,1.5,�k��,7.0
2022/02/17,05:40,1.5,�k��,6.7
2022/02/17,05:50,1.6,�k��,6.0
2022/02/17,06:00,1.6,�k��,7.4
2022/02/17,06:10,1.5,�k��,5.7
2022/02/17,06:20,1.6,�k��,4.9
2022/02/17,06:30,1.5,�k��,6.1
2022/02/17,06:40,1.5,�k��,6.4
2022/02/17,06:50,1.5,�k��,5.5
2022/02/17,07:00,1.4,���k��,5.8
2022/02/17,07:10,1.5,���k��,5.3
2022/02/17,07:20,1.5,���k��,6.2
2022/02/17,07:30,1.7,���k��,6.5
2022/02/17,07:40,1.5,�k��,4.0
2022/02/17,07:50,1.6,�k��,4.4
2022/02/17,08:00,1.5,�k��,4.0
2022/02/17,08:10,1.5,�k�k��,5.5
2022/02/17,08:20,1.5,�k��,5.0
2022/02/17,08:30,1.6,�k��,6.7
2022/02/17,08:40,1.5,�k��,6.5
2022/02/17,08:50,1.6,�k��,6.6
2022/02/17,09:00,1.6,�k��,6.1
2022/02/17,09:10,1.5,�k��,5.9
2022/02/17,09:20,1.5,�k�k��,4.7
2022/02/17,09:30,1.5,�k�k��,5.0
2022/02/17,09:40,1.5,�k�k��,5.3
2022/02/17,09:50,1.5,�k�k��,6.0
2022/02/17,10:00,1.5,�k��,5.9
2022/02/17,10:10,1.5,�k��,4.6
2022/02/17,10:20,1.6,�k��,5.3
2022/02/17,10:30,1.5,�k��,7.3
2022/02/17,10:40,1.5,�k��,6.9
2022/02/17,10:50,1.6,�k��,7.1
2022/02/17,11:00,1.6,���k��,5.4
2022/02/17,11:10,1.6,�k��,4.5
2022/02/17,11:20,1.5,�k��,6.2
2022/02/17,11:30,1.5,�k��,5.0
2022/02/17,11:40,1.6,���k��,6.0
2022/02/17,11:50,1.6,���k��,6.1
2022/02/17,12:00,1.6,�k��,8.4
2022/02/17,12:10,1.5,�k��,10.2
2022/02/17,12:20,1.6,�k��,7.8
2022/02/17,12:30,1.6,���k��,7.5
2022/02/17,12:40,1.6,�k��,6.8
2022/02/17,12:50,1.6,�k�k��,7.8
2022/02/17,13:00,1.5,�k�k��,8.1
2022/02/17,13:10,1.7,�k��,6.6
2022/02/17,13:20,1.6,���k��,8.2
2022/02/17,13:30,1.5,���k��,8.8
2022/02/17,13:40,1.6,�k��,5.2
2022/02/17,13:50,1.5,���k��,4.7
2022/02/17,14:00,1.6,�k��,6.6
2022/02/17,14:10,1.6,�k��,6.0
2022/02/17,14:20,1.5,�k�k��,6.0
2022/02/17,14:30,1.5,�k,5.7
2022/02/17,14:40,1.5,�k��,7.4
2022/02/17,14:50,1.5,���k��,5.6
2022/02/17,15:00,1.5,���k��,6.7
2022/02/17,15:10,1.5,���k��,4.4
2022/02/17,15:20,1.6,�k,4.5
2022/02/17,15:30,1.5,��,6.0
2022/02/17,15:40,1.5,��,7.0
2022/02/17,15:50,1.5,��,8.9
2022/02/17,16:00,1.5,��,6.5
2022/02/17,16:10,1.5,��,7.3
2022/02/17,16:20,1.5,��,6.5
2022/02/17,16:30,1.6,��,7.5
2022/02/17,16:40,1.6,��,8.0
2022/02/17,16:50,1.6,��,6.6
2022/02/17,17:00,1.5,��,5.1
2022/02/17,17:10,1.5,��,6.8
2022/02/17,17:20,1.6,��,7.6
2022/02/17,17:30,1.5,��,7.1
2022/02/17,17:40,1.5,��,7.3
2022/02/17,17:50,1.5,��,7.3
2022/02/17,18:00,1.5,���k��,7.1
2022/02/17,18:10,1.5,��,7.6
2022/02/17,18:20,1.5,��,6.4
2022/02/17,18:30,1.6,��,6.8
2022/02/17,18:40,1.5,��,6.2
2022/02/17,18:50,1.6,���k��,5.2
2022/02/17,19:00,1.5,���k��,5.4
2022/02/17,19:10,1.6,���k��,4.7
2022/02/17,19:20,1.5,���k��,6.3
2022/02/17,19:30,1.6,��,5.3
2022/02/17,19:40,1.5,��,5.5
2022/02/17,19:50,1.5,��,5.8
2022/02/17,20:00,1.5,��,5.7
2022/02/17,20:10,1.5,��,4.3
2022/02/17,20:20,1.6,��,4.7
2022/02/17,20:30,1.5,��,4.8
2022/02/17,20:40,1.5,���k��,4.2
2022/02/17,20:50,1.6,��,5.6
2022/02/17,21:00,1.6,���k��,3.8
2022/02/17,21:10,1.7,��,3.9
2022/02/17,21:20,1.6,��,3.2
2022/02/17,21:30,1.5,��,4.9
2022/02/17,21:40,1.5,��,6.1
2022/02/17,21:50,1.5,��,5.2
2022/02/17,22:00,1.6,��,4.7
2022/02/17,22:10,1.5,��,3.5
2022/02/17,22:20,1.5,��,4.4
2022/02/17,22:30,1.5,��,5.7
2022/02/17,22:40,1.6,���쐼,5.5
2022/02/17,22:50,1.6,��,7.2
2022/02/17,23:00,1.5,��,6.1
2022/02/17,23:10,1.5,��,6.2
2022/02/17,23:20,1.5,���쐼,7.4
2022/02/17,23:30,1.5,���쐼,8.4
2022/02/17,23:40,1.4,���쐼,8.6
2022/02/17,23:50,1.5,���쐼,7.2
